SCP
0 0 0 0 0 0 0 0 0 0 0 0 0 0 0 -0 -0 0 0 0 0 0
0 0 0 0 0 0 0 0 0 0 0 0 0 0 0 -0 -0 -0 0 0 0 0
0 0 0 0 0 0 0 0 0 0 0 0 0 0 0 0 0 -0 0 0 0 0
0 0 0 0 0 0 0 0 0 0 0 0 0 0 0 0 0 0 0 0 0 0
0 0 0 0 0 0 0 0 0 0 0 0 0 0 0 0 0 0 0 0 0 0
0 0 0 0 0 0 0 0 0 0 0 0 0 0 0 0 0 0 0 0 0 0
0 0 0 0 0 0 0 0 0 0 0 0 0 0 0 0 0 0 0 0 -0 0
0 0 0 0 0 0 0 0 0 0 0 0 0 0 0 0 0 0 0 0 0 -0
0 0 0 0 0 0 0 0 0 0 0 0 0 0 -0 0 0 0 0 0 0 0
0 0 0 0 0 0 0 0 0 0 0 0 0 -0 -0 -0 0 0 0 0 0 0
0 0 0 0 0 0 0 0 0 0 0 0 0 -0 -0 -0 0 0 0 0 0 0
0 0 0 0 0 0 0 0 0 0 0 0 0 -0 -0 -0 0 0 0 0 0 0
0 0 0 0 0 0 0 0 0 0 0 0 0 -0 -0 -0 0 0 0 0 0 0
0 0 0 0 0 0 0 0 0 0 0 0 0 0 -0 -0 0 0 0 0 0 0
Wind_Speed_500mb
38 39 40 43 45 47 50 52 54 52 47 50 53 54 55 56 48 46 53 65 51 28
36 37 39 39 41 43 44 46 49 50 50 45 48 51 52 55 56 49 47 50 58 39
39 40 40 40 40 41 41 42 44 47 48 49 45 46 50 52 56 55 49 49 55 56
42 45 46 46 45 43 42 40 40 43 46 48 48 44 44 48 51 56 50 48 49 52
45 46 47 48 49 49 46 41 38 38 40 42 45 45 43 44 48 52 57 46 47 48
39 42 46 49 50 48 45 43 38 35 35 37 38 41 42 38 41 45 50 52 40 44
39 43 47 50 52 51 47 42 36 33 31 32 32 33 38 38 36 39 43 49 45 34
38 42 46 49 50 48 45 40 34 31 28 27 28 29 32 34 34 35 38 43 47 42
36 42 46 47 48 48 43 38 33 28 26 25 26 28 28 28 29 31 34 40 43 47
33 39 44 46 46 46 44 38 33 29 26 23 24 30 33 26 20 23 28 32 37 42
30 36 41 42 44 44 44 41 38 31 28 24 24 27 35 30 20 18 18 23 29 34
27 33 37 41 43 46 44 41 38 33 30 28 25 26 34 34 25 25 20 17 21 28
24 29 35 39 42 44 46 44 41 36 30 31 29 26 33 34 28 25 24 17 17 20
18 25 32 35 38 42 45 45 45 42 37 32 31 26 33 36 31 29 27 23 21 18
Wind_Direction_500mb
346 350 352 355 356 358 359 1 2 3 0 2 6 7 11 13 14 2 1 1 1 340
341 343 345 346 347 349 351 356 358 1 3 2 2 5 8 11 11 13 2 4 4 4
334 335 334 335 334 335 339 344 350 356 1 4 1 360 6 9 11 12 7 6 2 9
328 325 324 323 322 321 323 328 336 346 354 360 2 359 2 6 13 12 11 4 8 5
330 331 332 329 321 313 307 311 319 328 340 351 358 359 2 3 8 14 10 13 7 10
344 348 347 345 341 335 320 303 300 309 321 336 348 355 360 3 5 12 13 11 14 13
348 351 351 348 344 343 338 325 305 300 308 320 334 346 354 2 1 6 14 16 15 19
352 354 355 351 347 345 345 339 326 308 302 310 321 339 349 357 359 360 8 18 19 16
356 357 358 354 351 349 348 345 339 326 318 313 318 322 332 350 358 356 0 9 19 16
359 1 0 358 355 354 355 351 347 341 334 326 320 316 337 335 354 355 354 1 9 16
3 6 4 2 2 3 3 360 355 349 343 342 332 327 351 325 342 342 352 354 2 9
8 9 7 8 10 10 10 11 8 1 351 347 348 337 353 348 336 334 349 343 351 0
14 12 12 13 15 16 17 16 15 11 1 349 346 352 359 355 342 339 336 338 345 359
18 12 17 17 17 21 22 24 23 20 11 356 346 350 4 2 345 339 333 333 332 358
Wind_Speed_850mb
38 39 40 43 45 47 50 52 54 52 47 50 53 54 55 56 48 46 53 65 51 28
36 37 39 39 41 43 44 46 49 50 50 45 48 51 52 55 56 49 47 50 58 39
39 40 40 40 40 41 41 42 44 47 48 49 45 46 50 52 56 55 49 49 55 56
42 45 46 46 45 43 42 40 40 43 46 48 48 44 44 48 51 56 50 48 49 52
45 46 47 48 49 49 46 41 38 38 40 42 45 45 43 44 48 52 57 46 47 48
39 42 46 49 50 48 45 43 38 35 35 37 38 41 42 38 41 45 50 52 40 44
39 43 47 50 52 51 47 42 36 33 31 32 32 33 38 38 36 39 43 49 45 34
38 42 46 49 50 48 45 40 34 31 28 27 28 29 32 34 34 35 38 43 47 42
36 42 46 47 48 48 43 38 33 28 26 25 26 28 28 28 29 31 34 40 43 47
33 39 44 46 46 46 44 38 33 29 26 23 24 30 33 26 20 23 28 32 37 42
30 36 41 42 44 44 44 41 38 31 28 24 24 27 35 30 20 18 18 23 29 34
27 33 37 41 43 46 44 41 38 33 30 28 25 26 34 34 25 25 20 17 21 28
24 29 35 39 42 44 46 44 41 36 30 31 29 26 33 34 28 25 24 17 17 20
18 25 32 35 38 42 45 45 45 42 37 32 31 26 33 36 31 29 27 23 21 18
Wind_Direction_850mb
346 350 352 355 356 358 359 1 2 3 0 2 6 7 11 13 14 2 1 1 1 340
341 343 345 346 347 349 351 356 358 1 3 2 2 5 8 11 11 13 2 4 4 4
334 335 334 335 334 335 339 344 350 356 1 4 1 360 6 9 11 12 7 6 2 9
328 325 324 323 322 321 323 328 336 346 354 360 2 359 2 6 13 12 11 4 8 5
330 331 332 329 321 313 307 311 319 328 340 351 358 359 2 3 8 14 10 13 7 10
344 348 347 345 341 335 320 303 300 309 321 336 348 355 360 3 5 12 13 11 14 13
348 351 351 348 344 343 338 325 305 300 308 320 334 346 354 2 1 6 14 16 15 19
352 354 355 351 347 345 345 339 326 308 302 310 321 339 349 357 359 360 8 18 19 16
356 357 358 354 351 349 348 345 339 326 318 313 318 322 332 350 358 356 0 9 19 16
359 1 0 358 355 354 355 351 347 341 334 326 320 316 337 335 354 355 354 1 9 16
3 6 4 2 2 3 3 360 355 349 343 342 332 327 351 325 342 342 352 354 2 9
8 9 7 8 10 10 10 11 8 1 351 347 348 337 353 348 336 334 349 343 351 0
14 12 12 13 15 16 17 16 15 11 1 349 346 352 359 355 342 339 336 338 345 359
18 12 17 17 17 21 22 24 23 20 11 356 346 350 4 2 345 339 333 333 332 358